Regional Weather Roundup
Issued by NWS

Current Version | Previous Version | Text Only | Print | Product List | Glossary Off
Versions: 1 2 3 4 5 6 7 8 9 10 11 12 13 14 15 16 17 18 19 20 21 22 23 24 25 26 27

000
ASUS44 KBMX 111710
RWRAL

ALABAMA REGIONAL WEATHER ROUNDUP
NATIONAL WEATHER SERVICE BIRMINGHAM AL
1100 AM CST MON DEC 11 2017

NOTE: "FAIR" INDICATES FEW OR NO CLOUDS BELOW 12,000 FEET
WITH NO SIGNIFICANT WEATHER AND/OR OBSTRUCTIONS TO VISIBILITY.

THE REMARK "TC" DENOTES TEMPERATURE IN DEGREES CELSIUS.

ALZ001>011-014-016>018-020-111800-
NORTH ALABAMA

CITY           SKY/WX    TMP DP  RH WIND       PRES   REMARKS
MUSCLE SHOALS  SUNNY     53  31  42 W6        30.14F
HUNTSVILLE     SUNNY     50  34  54 S5        30.13F
DECATUR        SUNNY     50  32  50 S5        30.14F
HALEYVILLE     FAIR      53  32  44 SW8       30.15F
GADSDEN        SUNNY     49  33  54 SW3       30.16F
$$

ALZ012-013-022-023-030>036-040>044-111800-
WEST CENTRAL ALABAMA

CITY           SKY/WX    TMP DP  RH WIND       PRES   REMARKS
TUSCALOOSA     SUNNY     51  37  58 S3        30.18F
DEMOPOLIS        N/A     55  36  49 CALM      30.19F
$$

ALZ015-024>026-033>036-041>044-111800-
CENTRAL ALABAMA

CITY           SKY/WX    TMP DP  RH WIND       PRES   REMARKS
BIRMINGHAM     SUNNY     51  32  48 CALM      30.18F
MONTGOMERY     SUNNY     54  35  48 VRB3      30.21F
SHELBY CO ARPT SUNNY     50  37  61 VRB3      30.17F
MAXWELL AFB    SUNNY     53  37  54 SW5       30.19F
GREENVILLE     FAIR      57  34  41 VRB6      30.19
SELMA          FAIR      54  36  50 SW5       30.20F
PRATTVILLE     FAIR      50  35  56 CALM      30.20F
BESSEMER       FAIR      51  34  52 S7        30.16F
TALLADEGA      FAIR      49  35  56 CALM      30.17F
PELL CITY      SUNNY     50  36  57 VRB5      30.17F
MARION         FAIR      51  37  57 W3        30.19F
SYLACAUGA      FAIR      50  38  63 S5        30.17F
$$

ALZ019-021-028-029-037-038-045>048-111800-
EAST CENTRAL ALABAMA

CITY           SKY/WX    TMP DP  RH WIND       PRES   REMARKS
ANNISTON       SUNNY     50  32  50 W5        30.16F
ALEXANDER CITY SUNNY     50  34  54 SW5       30.17F
AUBURN         SUNNY     51  35  54 SW6       30.20F
$$

ALZ051>064-111800-
SOUTHWEST ALABAMA

CITY           SKY/WX    TMP DP  RH WIND       PRES   REMARKS
MOBILE         MOSUNNY   60  38  43 W6        30.25F
BROOKLEY FIELD SUNNY     62  39  42 W7        30.27F
EVERGREEN      SUNNY     61  37  41 SW5       30.22F
$$

ALZ049-050-065>069-111800-
SOUTHEAST ALABAMA

CITY           SKY/WX    TMP DP  RH WIND       PRES   REMARKS
DOTHAN         SUNNY     57  36  45 W8        30.25F
OZARK          SUNNY     58  35  41 W7        30.22F
TROY           SUNNY     56  36  47 SW6       30.21F
EUFAULA        FAIR      61  36  39 VRB5      30.19F
$$




USA.gov is the U.S. government's official web portal to all federal, state and local government web resources and services.